UTA6125 UWUU-ULAM

Flight info

Callsign UTA6125
Flight time 2h 7m
Altitude 35000
Route UBIRA3N UBIRA M158 PER W62 POBEM T765 NIKDI NIKDI1P
Aircraft B735/M-SDFHIW/S

Departure

Time 2026-05-04 12:24
Airport Ufa International Airport (UWUU)

Arrival

Time 2026-05-04 14:32
Airport Naryan Mar Airport (ULAM)
Time Latitude Longitude Altitude Speed Heading
2026-05-04 12:22 54.54416 55.87922 448 ft 8 kts 250°
2026-05-04 12:23 54.54395 55.87814 450 ft 10 kts 257°
2026-05-04 12:23 54.54424 55.87722 450 ft 10 kts 328°
2026-05-04 12:23 54.54559 55.87591 452 ft 49 kts 332°
2026-05-04 12:23 54.55042 55.87126 450 ft 111 kts 330°
2026-05-04 12:24 54.55882 55.86302 454 ft 169 kts 330°
2026-05-04 12:24 54.57029 55.85225 804 ft 197 kts 332°
2026-05-04 12:24 54.58256 55.84120 1666 ft 200 kts 333°
2026-05-04 12:24 54.59594 55.83183 2417 ft 219 kts 337°
2026-05-04 12:25 54.61042 55.82034 3062 ft 241 kts 331°
2026-05-04 12:25 54.62537 55.80496 3796 ft 256 kts 328°
2026-05-04 12:25 54.64072 55.78893 4872 ft 259 kts 329°
2026-05-04 12:25 54.65624 55.77323 5877 ft 264 kts 329°
2026-05-04 12:26 54.67165 55.75799 6833 ft 269 kts 329°
2026-05-04 12:26 54.68799 55.74170 7779 ft 275 kts 328°
2026-05-04 12:26 54.70459 55.72495 8788 ft 278 kts 329°
2026-05-04 12:26 54.72143 55.70832 9775 ft 282 kts 329°
2026-05-04 12:27 54.73902 55.69096 10344 ft 302 kts 329°
2026-05-04 12:27 54.75774 55.67309 11183 ft 310 kts 332°
2026-05-04 12:27 54.77749 55.65751 12142 ft 316 kts 336°
2026-05-04 12:27 54.79832 55.64370 13013 ft 323 kts 338°
2026-05-04 12:28 54.81953 55.63045 13919 ft 327 kts 338°
2026-05-04 12:28 54.84103 55.61688 14812 ft 331 kts 338°
2026-05-04 12:28 54.86309 55.60271 15336 ft 343 kts 337°
2026-05-04 12:28 54.88533 55.58833 15589 ft 339 kts 337°
2026-05-04 12:29 54.90745 55.57404 15813 ft 339 kts 337°
2026-05-04 12:29 54.92932 55.55985 15903 ft 341 kts 337°
2026-05-04 12:29 54.95151 55.54547 15900 ft 341 kts 337°
2026-05-04 12:29 54.97367 55.53113 15892 ft 338 kts 337°
2026-05-04 12:30 54.99575 55.51719 15878 ft 340 kts 341°
2026-05-04 12:30 55.01963 55.51219 16011 ft 353 kts
2026-05-04 12:30 55.04396 55.51516 17045 ft 346 kts
2026-05-04 12:30 55.06777 55.51672 17882 ft 350 kts 358°
2026-05-04 12:31 55.09236 55.51671 18500 ft 358 kts 357°
2026-05-04 12:31 55.11730 55.51602 19364 ft 359 kts 356°
2026-05-04 12:31 55.14253 55.51524 20036 ft 367 kts 356°
2026-05-04 12:31 55.16796 55.51482 20682 ft 372 kts 357°
2026-05-04 12:32 55.19260 55.51454 21369 ft 375 kts 356°
2026-05-04 12:32 55.24675 55.51372 22616 ft 386 kts 356°
2026-05-04 12:32 55.27367 55.51300 23289 ft 389 kts 356°
2026-05-04 12:33 55.30089 55.51248 23894 ft 394 kts 356°
2026-05-04 12:33 55.32840 55.51205 24504 ft 397 kts 356°
2026-05-04 12:33 55.35614 55.51158 25097 ft 401 kts 356°
2026-05-04 12:33 55.38419 55.51114 25705 ft 404 kts 356°
2026-05-04 12:34 55.41234 55.51074 26255 ft 407 kts 356°
2026-05-04 12:34 55.44083 55.51029 26834 ft 409 kts 356°
2026-05-04 12:34 55.46929 55.50984 27464 ft 409 kts 356°
2026-05-04 12:34 55.49791 55.50938 28009 ft 413 kts 356°
2026-05-04 12:35 55.52676 55.50889 28473 ft 417 kts 356°
2026-05-04 12:35 55.55606 55.50835 28697 ft 428 kts 356°
2026-05-04 12:35 55.58633 55.50769 28940 ft 438 kts 356°
2026-05-04 12:35 55.61681 55.50721 29547 ft 438 kts 357°
2026-05-04 12:36 55.64720 55.50684 30129 ft 439 kts 357°
2026-05-04 12:36 55.67750 55.50644 30591 ft 442 kts 357°
2026-05-04 12:36 55.70831 55.50593 31153 ft 442 kts 356°
2026-05-04 12:36 55.73901 55.50542 31752 ft 441 kts 356°
2026-05-04 12:37 55.76958 55.50490 32299 ft 440 kts 356°
2026-05-04 12:37 55.80031 55.50434 32809 ft 440 kts 357°
2026-05-04 12:37 55.83093 55.50376 33317 ft 440 kts 356°
2026-05-04 12:37 55.86147 55.50320 33811 ft 439 kts 356°
2026-05-04 12:38 55.89206 55.50279 34254 ft 440 kts 356°
2026-05-04 12:38 55.92277 55.50224 34555 ft 442 kts 356°
2026-05-04 12:38 55.95339 55.50189 34787 ft 442 kts 358°
2026-05-04 12:39 56.01461 55.51503 34881 ft 445 kts 11°
2026-05-04 12:39 56.07334 55.54460 34863 ft 432 kts 13°
2026-05-04 12:40 56.13155 55.57222 34881 ft 436 kts 11°
2026-05-04 12:40 56.19043 55.59788 34884 ft 442 kts 11°
2026-05-04 12:41 56.25166 55.62494 34877 ft 457 kts 11°
2026-05-04 12:41 56.31332 55.65243 34862 ft 460 kts 11°
2026-05-04 12:42 56.37512 55.68009 34863 ft 455 kts 11°
2026-05-04 12:42 56.43649 55.70754 34863 ft 454 kts 11°
2026-05-04 12:43 56.49802 55.73506 34858 ft 455 kts 11°
2026-05-04 12:43 56.55943 55.76289 34857 ft 455 kts 11°
2026-05-04 12:44 56.62071 55.79075 34855 ft 454 kts 11°
2026-05-04 12:44 56.67444 55.81526 34846 ft 451 kts 11°
2026-05-04 12:45 56.73545 55.84318 34850 ft 453 kts 12°
2026-05-04 12:45 56.79663 55.87111 34847 ft 452 kts 11°
2026-05-04 12:46 56.85757 55.89882 34839 ft 451 kts 11°
2026-05-04 12:46 56.91886 55.92292 34840 ft 448 kts
2026-05-04 12:47 56.98018 55.94324 34838 ft 448 kts
2026-05-04 12:47 57.03122 55.96049 34835 ft 448 kts
2026-05-04 12:48 57.09240 55.98182 34819 ft 447 kts
2026-05-04 12:48 57.15347 56.00314 34815 ft 446 kts
2026-05-04 12:49 57.21443 56.02429 34826 ft 446 kts
2026-05-04 12:49 57.27538 56.04567 34821 ft 445 kts
2026-05-04 12:50 57.33613 56.06701 34818 ft 444 kts
2026-05-04 12:50 57.39679 56.08834 34815 ft 444 kts
2026-05-04 12:51 57.45767 56.10290 34781 ft 438 kts 353°
2026-05-04 12:51 57.51749 56.08701 34796 ft 436 kts 349°
2026-05-04 12:52 57.57794 56.07676 34810 ft 436 kts 353°
2026-05-04 12:52 57.63817 56.06979 34804 ft 435 kts 353°
2026-05-04 12:53 57.69846 56.06131 34808 ft 435 kts 352°
2026-05-04 12:53 57.75881 56.05244 34817 ft 435 kts 353°
2026-05-04 12:54 57.81847 56.04405 34810 ft 434 kts 353°
2026-05-04 12:54 57.87880 56.03587 34812 ft 434 kts 352°
2026-05-04 12:55 57.93882 56.02391 34807 ft 433 kts 349°
2026-05-04 12:55 57.99813 56.00661 34807 ft 432 kts 348°
2026-05-04 12:56 58.05760 55.98906 34815 ft 433 kts 348°
2026-05-04 12:56 58.11658 55.97206 34816 ft 432 kts 348°
2026-05-04 12:57 58.17613 55.95505 34815 ft 433 kts 348°
2026-05-04 12:57 58.23570 55.93783 34817 ft 433 kts 348°
2026-05-04 12:58 58.29523 55.92030 34808 ft 433 kts 348°
2026-05-04 12:58 58.35476 55.90279 34809 ft 433 kts 348°
2026-05-04 12:59 58.41429 55.88539 34811 ft 433 kts 348°
2026-05-04 12:59 58.47389 55.86759 34813 ft 434 kts 348°
2026-05-04 13:00 58.53353 55.84971 34815 ft 434 kts 348°
2026-05-04 13:00 58.59318 55.83209 34817 ft 433 kts 348°
2026-05-04 13:01 58.65288 55.81452 34817 ft 435 kts 348°
2026-05-04 13:01 58.71264 55.79659 34810 ft 434 kts 347°
2026-05-04 13:02 58.77227 55.77818 34816 ft 434 kts 348°
2026-05-04 13:02 58.82200 55.76333 34803 ft 435 kts 348°
2026-05-04 13:04 58.83118 55.76062 34803 ft 435 kts 348°
2026-05-04 13:05 58.88608 55.74400 34818 ft 437 kts 347°
2026-05-04 13:05 58.94629 55.72547 34812 ft 437 kts 348°
2026-05-04 13:06 59.00616 55.70719 34815 ft 435 kts 347°
2026-05-04 13:06 59.06596 55.68897 34808 ft 435 kts 347°
2026-05-04 13:07 59.12594 55.67069 34808 ft 437 kts 348°
2026-05-04 13:07 59.18589 55.65218 34816 ft 436 kts 347°
2026-05-04 13:08 59.24589 55.63315 34804 ft 437 kts 347°
2026-05-04 13:08 59.30582 55.61442 34812 ft 436 kts 347°
2026-05-04 13:09 59.36567 55.59569 34817 ft 436 kts 347°
2026-05-04 13:09 59.42557 55.57693 34815 ft 437 kts 347°
2026-05-04 13:10 59.48566 55.55796 34823 ft 437 kts 347°
2026-05-04 13:10 59.54564 55.53906 34817 ft 437 kts 347°
2026-05-04 13:11 59.60567 55.51993 34820 ft 437 kts 347°
2026-05-04 13:11 59.66579 55.50117 34822 ft 437 kts 347°
2026-05-04 13:12 59.72559 55.48212 34821 ft 437 kts 347°
2026-05-04 13:12 59.78544 55.46310 34828 ft 437 kts 347°
2026-05-04 13:13 59.84544 55.44408 34826 ft 437 kts 347°
2026-05-04 13:13 59.90556 55.42495 34828 ft 437 kts 347°
2026-05-04 13:14 59.96546 55.40534 34825 ft 436 kts 346°
2026-05-04 13:14 59.99458 55.39012 34811 ft 431 kts 334°
2026-05-04 13:14 60.02047 55.36116 34804 ft 423 kts 316°
2026-05-04 13:14 60.03935 55.31730 34801 ft 415 kts 295°
2026-05-04 13:15 60.04864 55.26348 34836 ft 410 kts 276°
2026-05-04 13:15 60.04854 55.20666 34836 ft 411 kts 261°
2026-05-04 13:15 60.04058 55.15171 34812 ft 413 kts 246°
2026-05-04 13:15 60.02526 55.10312 34807 ft 416 kts 230°
2026-05-04 13:16 60.00301 55.06597 34809 ft 422 kts 212°
2026-05-04 13:16 59.97559 55.04435 34809 ft 431 kts 194°
2026-05-04 13:16 59.94530 55.03934 34853 ft 442 kts 182°
2026-05-04 13:17 59.88350 55.05179 34796 ft 447 kts 175°
2026-05-04 13:17 59.85359 55.06948 34772 ft 453 kts 154°
2026-05-04 13:17 59.82841 55.10722 34821 ft 460 kts 133°
2026-05-04 13:17 59.81092 55.16088 34823 ft 470 kts 112°
2026-05-04 13:18 59.80345 55.22416 34810 ft 475 kts 91°
2026-05-04 13:18 59.80697 55.28790 34809 ft 473 kts 71°
2026-05-04 13:18 59.82053 55.34462 34810 ft 467 kts 51°
2026-05-04 13:18 59.84206 55.38868 34809 ft 458 kts 31°
2026-05-04 13:19 59.87105 55.41663 34812 ft 448 kts 10°
2026-05-04 13:19 59.90140 55.42493 34836 ft 435 kts 357°
2026-05-04 13:19 59.93126 55.42404 34812 ft 425 kts 354°
2026-05-04 13:20 59.98909 55.41843 34802 ft 410 kts 353°
2026-05-04 13:20 60.04652 55.41199 34821 ft 417 kts 352°
2026-05-04 13:21 60.10461 55.40601 34811 ft 417 kts 353°
2026-05-04 13:21 60.16204 55.40028 34811 ft 413 kts 353°
2026-05-04 13:22 60.21926 55.39440 34830 ft 412 kts 350°
2026-05-04 13:22 60.24730 55.38425 34784 ft 408 kts 339°
2026-05-04 13:22 60.27423 55.36704 34843 ft 406 kts 337°
2026-05-04 13:23 60.32855 55.33421 34806 ft 408 kts 340°
2026-05-04 13:23 60.38335 55.30396 34807 ft 407 kts 340°
2026-05-04 13:24 60.43779 55.27379 34816 ft 407 kts 340°
2026-05-04 13:24 60.49238 55.24354 34819 ft 408 kts 340°
2026-05-04 13:25 60.57420 55.19794 34810 ft 409 kts 340°
2026-05-04 13:25 60.63084 55.16823 34820 ft 432 kts 343°
2026-05-04 13:26 60.69067 55.14677 34799 ft 443 kts 348°
2026-05-04 13:26 60.75071 55.12578 34803 ft 437 kts 345°
2026-05-04 13:27 60.81023 55.10254 34816 ft 436 kts 345°
2026-05-04 13:27 60.86960 55.07995 34811 ft 437 kts 345°
2026-05-04 13:28 60.92948 55.05771 34806 ft 438 kts 346°
2026-05-04 13:28 60.98941 55.03531 34810 ft 437 kts 345°
2026-05-04 13:29 61.04908 55.01273 34815 ft 436 kts 345°
2026-05-04 13:29 61.10884 54.99013 34810 ft 437 kts 345°
2026-05-04 13:30 61.16850 54.96742 34816 ft 437 kts 345°
2026-05-04 13:30 61.22838 54.94497 34816 ft 437 kts 345°
2026-05-04 13:31 61.28825 54.92228 34813 ft 437 kts 345°
2026-05-04 13:31 61.34770 54.90013 34814 ft 437 kts 345°
2026-05-04 13:32 61.40749 54.87703 34816 ft 437 kts 345°
2026-05-04 13:32 61.46727 54.85399 34815 ft 437 kts 345°
2026-05-04 13:33 61.52701 54.83117 34808 ft 437 kts 345°
2026-05-04 13:33 61.58682 54.80843 34815 ft 436 kts 345°
2026-05-04 13:34 61.64647 54.78523 34814 ft 437 kts 345°
2026-05-04 13:34 61.70624 54.76244 34815 ft 437 kts 345°
2026-05-04 13:35 61.78559 54.73153 34810 ft 436 kts 344°
2026-05-04 13:36 61.84471 54.70342 34799 ft 435 kts 341°
2026-05-04 13:36 61.90343 54.67316 34801 ft 434 kts 341°
2026-05-04 13:37 61.96211 54.64328 34806 ft 434 kts 342°
2026-05-04 13:37 62.02079 54.61333 34806 ft 434 kts 341°
2026-05-04 13:38 62.07949 54.58310 34802 ft 433 kts 341°
2026-05-04 13:38 62.13794 54.55321 34803 ft 433 kts 341°
2026-05-04 13:39 62.20181 54.52040 34800 ft 434 kts 341°
2026-05-04 13:39 62.26050 54.49014 34801 ft 434 kts 341°
2026-05-04 13:40 62.31922 54.46001 34803 ft 434 kts 341°
2026-05-04 13:40 62.37781 54.42965 34806 ft 434 kts 341°
2026-05-04 13:41 62.43655 54.39912 34801 ft 434 kts 341°
2026-05-04 13:41 62.49520 54.36902 34806 ft 434 kts 341°
2026-05-04 13:42 62.58304 54.32290 34804 ft 434 kts 341°
2026-05-04 13:42 62.64048 54.29296 34764 ft 418 kts 341°
2026-05-04 13:43 62.69134 54.26637 34804 ft 424 kts 341°
2026-05-04 13:43 62.75011 54.23543 34798 ft 444 kts 341°
2026-05-04 13:44 62.81051 54.20391 34770 ft 446 kts 341°
2026-05-04 13:44 62.87044 54.17234 34761 ft 440 kts 340°
2026-05-04 13:45 62.92983 54.14023 34764 ft 439 kts 340°
2026-05-04 13:45 62.98922 54.10791 34768 ft 440 kts 340°
2026-05-04 13:46 63.04884 54.07570 34770 ft 441 kts 340°
2026-05-04 13:46 63.10833 54.04315 34773 ft 441 kts 340°
2026-05-04 13:47 63.16788 54.01055 34772 ft 441 kts 340°
2026-05-04 13:47 63.22734 53.97805 34772 ft 439 kts 340°
2026-05-04 13:48 63.28649 53.94571 34769 ft 438 kts 340°
2026-05-04 13:48 63.34570 53.91325 34769 ft 437 kts 339°
2026-05-04 13:49 63.40478 53.88054 34771 ft 438 kts 339°
2026-05-04 13:49 63.46396 53.84799 34773 ft 439 kts 339°
2026-05-04 13:50 63.52345 53.81507 34779 ft 440 kts 339°
2026-05-04 13:50 63.58380 53.78813 34769 ft 447 kts 347°
2026-05-04 13:51 63.64609 53.77982 34768 ft 450 kts 351°
2026-05-04 13:51 63.70855 53.77357 34770 ft 448 kts 349°
2026-05-04 13:52 63.80194 53.75893 34777 ft 449 kts 349°
2026-05-04 13:53 63.86437 53.74949 34778 ft 450 kts 349°
2026-05-04 13:53 63.92675 53.74025 34770 ft 449 kts 349°
2026-05-04 13:54 64.02023 53.72646 34769 ft 448 kts 349°
2026-05-04 13:55 64.11357 53.71206 34770 ft 449 kts 349°
2026-05-04 13:55 64.20714 53.69795 34777 ft 450 kts 349°
2026-05-04 13:56 64.25893 53.69018 34772 ft 450 kts 349°
2026-05-04 13:57 64.35278 53.67596 34771 ft 450 kts 349°
2026-05-04 13:58 64.47768 53.65652 34770 ft 450 kts 349°
2026-05-04 13:58 64.57145 53.64198 34772 ft 451 kts 349°
2026-05-04 13:59 64.63403 53.63196 34773 ft 451 kts 349°
2026-05-04 14:00 64.72811 53.61764 34772 ft 452 kts 349°
2026-05-04 14:00 64.82182 53.60295 34772 ft 453 kts 349°
2026-05-04 14:01 64.88470 53.59317 34775 ft 453 kts 349°
2026-05-04 14:02 64.97911 53.57802 34773 ft 453 kts 349°
2026-05-04 14:02 65.04201 53.56832 34771 ft 453 kts 349°
2026-05-04 14:03 65.10488 53.55813 34770 ft 454 kts 349°
2026-05-04 14:03 65.16816 53.54814 34778 ft 456 kts 349°
2026-05-04 14:04 65.26318 53.53315 34776 ft 456 kts 349°
2026-05-04 14:04 65.32650 53.52297 34774 ft 456 kts 349°
2026-05-04 14:05 65.42139 53.50777 34774 ft 454 kts 349°
2026-05-04 14:06 65.48493 53.49764 34783 ft 461 kts 349°
2026-05-04 14:06 65.54886 53.48732 34770 ft 459 kts 349°
2026-05-04 14:07 65.61226 53.47651 34768 ft 456 kts 349°
2026-05-04 14:07 65.67561 53.46605 34769 ft 456 kts 349°
2026-05-04 14:08 65.73893 53.45507 34774 ft 458 kts 349°
2026-05-04 14:08 65.80259 53.44436 34775 ft 458 kts 349°
2026-05-04 14:09 65.89695 53.42838 34771 ft 452 kts 349°
2026-05-04 14:10 65.99107 53.41297 34770 ft 454 kts 350°
2026-05-04 14:10 66.05392 53.40189 34698 ft 451 kts 349°
2026-05-04 14:10 66.08479 53.39633 34545 ft 438 kts 349°
2026-05-04 14:11 66.11474 53.39118 34389 ft 425 kts 349°
2026-05-04 14:11 66.17238 53.38100 34071 ft 421 kts 349°
2026-05-04 14:11 66.20111 53.37551 33670 ft 425 kts 348°
2026-05-04 14:12 66.23016 53.37028 33235 ft 420 kts 349°
2026-05-04 14:12 66.25934 53.36541 32808 ft 415 kts 349°
2026-05-04 14:12 66.31611 53.35562 31694 ft 417 kts 348°
2026-05-04 14:13 66.34518 53.35029 30962 ft 417 kts 348°
2026-05-04 14:13 66.37396 53.34520 30228 ft 414 kts 347°
2026-05-04 14:13 66.40199 53.34032 29501 ft 411 kts 347°
2026-05-04 14:13 66.42998 53.33538 28766 ft 407 kts 347°
2026-05-04 14:14 66.45685 53.33055 28061 ft 405 kts 347°
2026-05-04 14:14 66.51253 53.32071 26574 ft 398 kts 347°
2026-05-04 14:14 66.53984 53.31590 25834 ft 394 kts 347°
2026-05-04 14:15 66.59343 53.30645 24553 ft 379 kts 346°
2026-05-04 14:15 66.64453 53.29737 23288 ft 362 kts 346°
2026-05-04 14:16 66.69055 53.28911 22298 ft 344 kts 346°
2026-05-04 14:16 66.71409 53.28488 21787 ft 336 kts 346°
2026-05-04 14:17 66.76029 53.27628 20800 ft 335 kts 346°
2026-05-04 14:17 66.78344 53.27210 20301 ft 332 kts 347°
2026-05-04 14:17 66.82945 53.26389 18923 ft 331 kts 347°
2026-05-04 14:18 66.85235 53.25976 18178 ft 329 kts 347°
2026-05-04 14:18 66.89764 53.25153 16859 ft 322 kts 348°
2026-05-04 14:19 66.94181 53.24342 15612 ft 314 kts 348°
2026-05-04 14:19 66.96343 53.23949 14984 ft 310 kts 349°
2026-05-04 14:19 66.98488 53.23551 14361 ft 308 kts 349°
2026-05-04 14:19 67.00618 53.23159 13734 ft 304 kts 349°
2026-05-04 14:20 67.02722 53.22762 13109 ft 303 kts 349°
2026-05-04 14:20 67.04815 53.22390 12485 ft 300 kts 350°
2026-05-04 14:20 67.06884 53.21974 11859 ft 297 kts 350°
2026-05-04 14:21 67.10975 53.21248 10609 ft 292 kts 351°
2026-05-04 14:21 67.12993 53.20880 9985 ft 289 kts 351°
2026-05-04 14:21 67.14981 53.20525 9359 ft 285 kts 352°
2026-05-04 14:21 67.16941 53.20163 8732 ft 281 kts 351°
2026-05-04 14:22 67.18863 53.19527 8102 ft 274 kts 342°
2026-05-04 14:22 67.20638 53.17947 7476 ft 267 kts 332°
2026-05-04 14:22 67.22281 53.15795 6864 ft 263 kts 328°
2026-05-04 14:23 67.26933 53.09236 5021 ft 255 kts 328°
2026-05-04 14:23 67.28497 53.07071 4392 ft 254 kts 328°
2026-05-04 14:23 67.30051 53.04925 3771 ft 252 kts 328°
2026-05-04 14:24 67.31583 53.02807 3348 ft 246 kts 328°
2026-05-04 14:24 67.33054 53.00771 3379 ft 238 kts 328°
2026-05-04 14:24 67.34518 52.98726 3351 ft 238 kts 328°
2026-05-04 14:24 67.35973 52.96704 3259 ft 237 kts 328°
2026-05-04 14:25 67.37425 52.94697 3187 ft 237 kts 328°
2026-05-04 14:25 67.40340 52.90642 3049 ft 237 kts 328°
2026-05-04 14:25 67.41788 52.88629 3028 ft 236 kts 328°
2026-05-04 14:26 67.43240 52.86610 3010 ft 237 kts 328°
2026-05-04 14:26 67.44686 52.84594 2986 ft 236 kts 328°
2026-05-04 14:26 67.46141 52.82562 2991 ft 237 kts 328°
2026-05-04 14:26 67.47593 52.80544 3008 ft 236 kts 328°
2026-05-04 14:27 67.49038 52.78519 3006 ft 236 kts 328°
2026-05-04 14:27 67.50483 52.76534 2994 ft 237 kts 329°
2026-05-04 14:27 67.52024 52.74940 2984 ft 240 kts 340°
2026-05-04 14:27 67.53639 52.74016 2941 ft 244 kts 346°
2026-05-04 14:28 67.55321 52.73342 2788 ft 244 kts 347°
2026-05-04 14:28 67.57020 52.72720 2583 ft 249 kts 348°
2026-05-04 14:28 67.58730 52.72270 2392 ft 245 kts 356°
2026-05-04 14:28 67.60337 52.73187 2174 ft 231 kts 24°
2026-05-04 14:29 67.62009 52.79518 2073 ft 223 kts 70°
2026-05-04 14:29 67.62760 52.87176 1392 ft 213 kts 75°
2026-05-04 14:30 67.62968 52.90889 1196 ft 196 kts 85°
2026-05-04 14:30 67.63068 52.94245 1132 ft 175 kts 85°
2026-05-04 14:30 67.63400 53.00135 657 ft 153 kts 83°
2026-05-04 14:31 67.63541 53.02761 488 ft 138 kts 81°
2026-05-04 14:31 67.63803 53.07839 135 ft 137 kts 81°
2026-05-04 14:32 67.64017 53.11873 44 ft 74 kts 82°
2026-05-04 14:32 67.64070 53.12888 44 ft 43 kts 82°
2026-05-04 14:32 67.64108 53.13576 44 ft 34 kts 81°
2026-05-04 14:32 67.64132 53.14026 46 ft 23 kts 82°
2026-05-04 14:33 67.64151 53.14410 46 ft 15 kts 81°
2026-05-04 14:33 67.64166 53.14696 43 ft 18 kts 83°
2026-05-04 14:33 67.64179 53.14973 43 ft 0 kts 83°
2026-05-04 14:33 67.64179 53.14976 43 ft 2 kts 83°
2026-05-04 14:34 67.64199 53.15048 43 ft 6 kts 39°
2026-05-04 14:34 67.64236 53.15054 41 ft 7 kts 354°
2026-05-04 14:34 67.64290 53.15028 40 ft 5 kts 322°
2026-05-04 14:34 67.64307 53.14913 44 ft 9 kts 273°
2026-05-04 14:35 67.64297 53.14738 44 ft 11 kts 261°
2026-05-04 14:35 67.64285 53.14518 44 ft 13 kts 262°
2026-05-04 14:35 67.64273 53.14274 43 ft 14 kts 262°
2026-05-04 14:35 67.64258 53.14005 44 ft 15 kts 262°
2026-05-04 14:36 67.64243 53.13716 43 ft 16 kts 262°
2026-05-04 14:36 67.64227 53.13413 44 ft 17 kts 262°
2026-05-04 14:36 67.64211 53.13099 44 ft 18 kts 262°
2026-05-04 14:36 67.64194 53.12778 43 ft 18 kts 262°
2026-05-04 14:37 67.64176 53.12455 41 ft 18 kts 262°
2026-05-04 14:37 67.64159 53.12128 44 ft 18 kts 262°
2026-05-04 14:37 67.64142 53.11802 42 ft 18 kts 262°
2026-05-04 14:37 67.64126 53.11514 41 ft 18 kts 262°
2026-05-04 14:38 67.64108 53.11184 44 ft 18 kts 262°
2026-05-04 14:38 67.64090 53.10852 44 ft 18 kts 262°
2026-05-04 14:38 67.64072 53.10517 41 ft 19 kts 262°
2026-05-04 14:38 67.64055 53.10185 44 ft 18 kts 263°
2026-05-04 14:39 67.64057 53.09868 44 ft 16 kts 307°
2026-05-04 14:39 67.64093 53.09813 44 ft 1 kts 317°
2026-05-04 14:39 67.64090 53.09784 44 ft 2 kts 223°
2026-05-04 14:40 67.64082 53.09783 44 ft 0 kts 175°